Location: Dehesa de la Cepeda
(40.6574°N, 4.3013°W)
Time: 09:04:49
(UTC+00:00)

Vanguard 3 - Pass Details

Date: 07 August 2021
Orbit: 510 x 3260 km, 33.3° (Epoch: 18 September)

Event Time Altitude Azimuth Distance (km) Brightness Sun altitude
Rises 19:19:14 0° 268° (W) 5,454 12.9 0.3°
Reaches altitude 10° 19:22:19 10° 266° (W) 4,758 12.3 -0.3°
Maximum altitude 19:36:55 65° 189° (S) 3,185 10.1 -2.8°
Drops below altitude 10° 19:56:33 10° 114° (ESE) 6,158 10.9 -6.2°
Enters shadow 19:58:04 - 113° (ESE) 6,453 11.0 -6.4°
